Weather History for Marianna, FL

Change the Weather History Date:

Sunday, June 16, 2013

  Actual Average Record
Temperature  
Mean Temperature 81 °F 80 °F  
Max Temperature 89 °F 91 °F 98 °F (1998)
Min Temperature 73 °F 70 °F 61 °F (2002)
Degree Days  
Heating Degree Days 0    
Month to date heating degree days  
Since 1 June heating degree days  
Since 1 July heating degree days  
Cooling Degree Days 16    
Month to date cooling degree days  
Year to date cooling degree days  
Since 1 June cooling degree days  
Growing Degree Days 30 (Base 50)    
Moisture  
Dew Point 72 °F    
Average Humidity 76    
Maximum Humidity 90    
Minimum Humidity 53    
Precipitation  
Precipitation 0.38 in 0.19 in 0.81 in (1999)
Month to date precipitation 2.45 2.86  
Year to date precipitation 23.35 25.08  
Sea Level Pressure  
Sea Level Pressure 30.05 in    
Wind  
Wind Speed 6 mph (SSE)    
Max Wind Speed 16 mph    
Max Gust Speed -    
Visibility 9 miles    
Events Rain , Thunderstorm    
T = Trace of Precipitation, MM = Missing Value Source: NWS Daily Summary

Daily Weather History Graph

Daily Weather History Graph

Search for Another Location

Airport:

Trip Planner

Search our weather history database for the weather conditions in past years. The results will help you decide how hot, cold, wet, or windy it might be!

Date:

Astronomy

Jun. 16, 2013 Rise Set
Actual Time 5:37 AM CDT 7:45 PM CDT
Civil Twilight 5:09 AM CDT 8:13 PM CDT
Nautical Twilight 4:35 AM CDT 8:47 PM CDT
Astronomical Twilight 3:59 AM CDT 9:23 PM CDT
Moon 12:44 PM CDT (6/16) 12:16 AM CDT (6/16)
Length of Visible Light 15h 04m
Length of Day
14h 08m
Waxing Crescent, 50% of the Moon is Illuminated
Jun 16
Waxing Crescent
Jun 16
First Quarter
Jun 23
Full
Jun 29
Last Quarter
Jul 8
New

Hourly Weather History & Observations

Time (CDT) Temp. Heat Index Dew Point Humidity Pressure Visibility Wind Dir Wind Speed Gust Speed Precip Events Conditions
12:53 AM 78.1 °F - 70.0 °F 76% 30.05 in 10.0 mi ESE 5.8 mph - N/A   Mostly Cloudy
1:53 AM 77.0 °F - 70.0 °F 79% 30.06 in 10.0 mi Variable 3.5 mph - N/A   Overcast
2:53 AM 75.9 °F - 69.1 °F 79% 30.05 in 10.0 mi ESE 4.6 mph - N/A   Mostly Cloudy
3:53 AM 75.0 °F - 68.0 °F 79% 30.06 in 10.0 mi SE 5.8 mph - N/A   Clear
4:53 AM 73.9 °F - 66.9 °F 79% 30.06 in 10.0 mi SE 3.5 mph - N/A   Clear
5:53 AM 73.0 °F - 66.9 °F 81% 30.06 in 10.0 mi SE 4.6 mph - N/A   Clear
6:53 AM 75.0 °F - 68.0 °F 79% 30.07 in 10.0 mi ESE 4.6 mph - N/A   Clear
7:53 AM 78.1 °F - 70.0 °F 76% 30.10 in 10.0 mi Variable 4.6 mph - N/A   Clear
8:53 AM 82.0 °F 86.7 °F 72.0 °F 71% 30.10 in 10.0 mi Variable 3.5 mph - N/A   Scattered Clouds
9:53 AM 86.0 °F 93.0 °F 73.0 °F 65% 30.09 in 10.0 mi SSW 4.6 mph - N/A   Scattered Clouds
10:53 AM 87.1 °F 93.6 °F 72.0 °F 61% 30.08 in 10.0 mi ESE 4.6 mph - N/A   Mostly Cloudy
11:53 AM 88.0 °F 94.7 °F 72.0 °F 59% 30.07 in 10.0 mi Calm Calm - N/A   Mostly Cloudy
12:53 PM 84.0 °F 91.9 °F 75.0 °F 74% 30.05 in 10.0 mi East 6.9 mph - 0.00 in Rain Light Rain
1:53 PM 88.0 °F 95.6 °F 73.0 °F 61% 30.03 in 10.0 mi NE 6.9 mph - 0.01 in   Mostly Cloudy
2:25 PM 84.2 °F 92.3 °F 75.2 °F 74% 30.03 in 10.0 mi South 6.9 mph - 0.02 in Rain , Thunderstorm Light Thunderstorms and Rain
2:42 PM 78.8 °F - 75.2 °F 89% 30.05 in 2.0 mi WSW 16.1 mph - 0.16 in Rain , Thunderstorm Heavy Thunderstorms and Rain
2:48 PM 77.0 °F - 73.4 °F 89% 30.04 in 3.0 mi SW 12.7 mph - 0.19 in Rain , Thunderstorm Thunderstorms and Rain
2:53 PM 77.0 °F - 73.9 °F 90% 30.04 in 3.0 mi SW 11.5 mph - 0.22 in Rain , Thunderstorm Heavy Thunderstorms and Rain
3:02 PM 77.0 °F - 73.4 °F 89% 30.04 in 2.5 mi WSW 11.5 mph - 0.05 in Rain Heavy Rain
3:18 PM 78.8 °F - 73.4 °F 83% 30.04 in 6.0 mi SW 8.1 mph - 0.09 in Rain Light Rain
3:53 PM 82.0 °F 89.4 °F 75.9 °F 82% 30.02 in 10.0 mi ENE 3.5 mph - 0.15 in   Overcast
4:53 PM 86.0 °F 95.1 °F 75.0 °F 70% 30.00 in 10.0 mi ESE 6.9 mph - N/A   Clear
5:42 PM 87.8 °F 92.6 °F 69.8 °F 55% 30.00 in 10.0 mi East 5.8 mph - N/A Thunderstorm Partly Cloudy
5:53 PM 88.0 °F 92.1 °F 69.1 °F 53% 29.99 in 10.0 mi SE 6.9 mph - N/A   Partly Cloudy
6:53 PM 81.0 °F 85.2 °F 72.0 °F 74% 30.01 in 10.0 mi SSE 5.8 mph - N/A   Mostly Cloudy
7:53 PM 80.1 °F 83.8 °F 72.0 °F 76% 30.03 in 10.0 mi SSW 5.8 mph - N/A   Overcast
8:53 PM 79.0 °F - 73.0 °F 82% 30.03 in 10.0 mi SSW 5.8 mph - N/A   Overcast
9:53 PM 79.0 °F - 73.0 °F 82% 30.05 in 10.0 mi SSW 5.8 mph - N/A   Scattered Clouds
10:53 PM 78.1 °F - 73.0 °F 84% 30.04 in 10.0 mi Calm Calm - N/A   Overcast
11:53 PM 78.1 °F - 73.9 °F 87% 30.03 in 10.0 mi South 3.5 mph - N/A   Clear